sat.trackr.live / text

‹ back to catalog

STARLINK-5442

NORAD 54784 · 2022-175AC

PAYLOAD ACTIVE UNKNOWN

§ Identity

Operator
Country
US
Launch date
2022-12-17
Launch site
AFETR
Launch vehicle
Mass (kg)
RCS (m²)

Purposes: comms

External: N2YO · Heavens-Above · Gunter

§ Orbital elements

Epoch: 2026-05-25T03:19:41.736864Z

Period
95.44 min
Inclination
53.2125°
Eccentricity
0.0001454
Mean motion
15.08847790 rev/d
Perigee alt
538.7 km
Apogee alt
540.7 km
Semi-major
6,917.9 km
B*
-7.4706e-5
RAAN
60.6864°
Arg perigee
105.8767°
Mean anomaly
254.2386°
Rev number
19,146

§ Raw data

STARLINK-54421 54784U 22175AC  26145.13867751 -.00001477  00000+0 -74706-4 0  99992 54784  53.2125  60.6864 0001454 105.8767 254.2386 15.08847790191466

JSON: /api/v1/satellites/54784 · /tle

For live sub-satellite position, see the globe view (requires WebGL).

§ Visibility from observer

Set your observer location to see the next 7 days of passes ≥ 10°. The values pass through the URL so the page stays shareable.

No JS? Fill the form by hand. The geolocation button needs JavaScript.